AO-07 1 07530U 74089B 22342.72833375 -.00000038 00000-0 48795-4 0 9993 2 07530 101.9275 323.2835 0012471 68.1078 103.6849 12.53659211199547 UO-11 1 14781U 84021B 22342.70357367 .00001114 00000-0 13975-3 0 9992 2 14781 97.6361 322.4015 0009797 105.4189 254.8109 14.84016744 86880 AO-16 1 20439U 90005D 22342.72056436 .00000159 00000-0 74911-4 0 9999 2 20439 98.8656 323.2757 0011555 45.4866 128.4396 14.32967392717623 LO-19 1 20442U 90005G 22342.64872901 .00000171 00000-0 79202-4 0 9999 2 20442 98.8192 310.3836 0012167 22.5279 337.6436 14.33120800718054 HUBBLE 1 20580U 90037B 22342.68207863 .00003009 00000-0 16320-3 0 9994 2 20580 28.4702 93.7240 0002819 114.0276 350.4201 15.11365850592596 MET-2/21 1 22782U 93055A 22342.48130508 .00000112 00000-0 87944-4 0 9995 2 22782 82.5503 236.1054 0021401 217.0333 316.0057 13.83864949478077 AO-27 1 22825U 93061C 22342.50561733 .00000119 00000-0 63849-4 0 9996 2 22825 98.8683 17.0654 0007410 263.5373 96.4965 14.30215937523304 IO-26 1 22826U 93061D 22342.34660053 .00000134 00000-0 68997-4 0 9990 2 22826 98.8628 16.7730 0008009 248.5880 111.4448 14.30566885523277 FO-29 1 24278U 96046B 22342.78982213 -.00000025 00000-0 98176-5 0 9995 2 24278 98.5137 342.4684 0350101 190.7404 168.6119 13.53125314299183 NOAA-15 1 25338U 98030A 22342.83182084 .00000166 00000-0 87221-4 0 9995 2 25338 98.6274 9.9504 0011012 144.8370 215.3539 14.26205136278126 GO-32 1 25397U 98043D 22342.57152267 .00000084 00000-0 56732-4 0 9997 2 25397 98.8424 293.6837 0001169 16.6871 343.4345 14.23792958268201 ISS 1 25544U 98067A 22342.93293553 .00009535 00000-0 17594-3 0 9993 2 25544 51.6441 190.9195 0004306 137.8703 357.8322 15.49819237372280 NO-44 1 26931U 01043C 22342.37547742 .00000168 00000-0 95567-4 0 9992 2 26931 67.0514 329.4554 0005241 271.4572 88.5929 14.30772619106286 SO-50 1 27607U 02058C 22342.68934489 .00001347 00000-0 20330-3 0 9997 2 27607 64.5536 128.5947 0080900 261.3851 97.8080 14.76458963 74097 CO-55 1 27844U 03031E 22342.44428491 .00000311 00000-0 15901-3 0 9995 2 27844 98.6793 347.5224 0009162 323.3270 36.7280 14.22553656 8614 CO-57 1 27848U 03031J 22342.74360856 .00000259 00000-0 13675-3 0 9999 2 27848 98.6834 348.2959 0009285 338.0383 22.0396 14.22096680 8436 RS-22 1 27939U 03042A 22342.54133339 .00000883 00000-0 16386-3 0 9999 2 27939 98.2144 123.5101 0013055 24.0205 336.1606 14.67650779 26577 NOAA-18 1 28654U 05018A 22342.78224307 .00000230 00000-0 14775-3 0 9997 2 28654 98.9326 52.9317 0014136 195.0795 164.9958 14.12818425904687 CO-58 1 28895U 05043F 22342.33389360 .00001201 00000-0 23435-3 0 9996 2 28895 98.1293 111.3147 0015584 316.7643 43.2336 14.64705573912866 Falconsat-3 1 30776U 07006E 22341.67624960 .00161417 00000-0 91429-3 0 9996 2 30776 35.4231 191.0213 0007904 326.5613 33.4626 15.77572357876684 CO-65 1 32785U 08021C 22342.64314933 .00003088 00000-0 32271-3 0 9999 2 32785 97.6814 308.2666 0013307 23.1120 337.0694 14.90334670792429 AAUSAT2 1 32788U 08021F 22342.42070430 .00007353 00000-0 60768-3 0 9990 2 32788 97.5496 321.9212 0008996 252.0226 108.0017 14.99200210794488 DO-64 1 32789U 08021G 22342.02675901 .00024451 00000-0 11780-2 0 9998 2 32789 97.3246 2.4363 0011200 79.8072 280.4425 15.18671416798220 CO-66 1 32791U 08021J 22342.34674381 .00005294 00000-0 50394-3 0 9996 2 32791 97.6337 313.3036 0011981 338.8900 21.1825 14.93771930793146 RS-30 1 32953U 08025A 22342.62313728 .00000024 00000-0 10000-3 0 9992 2 32953 82.5041 75.6217 0018833 237.9732 121.9514 12.43115865659973 PRISM 1 33493U 09002B 22342.71404035 .00006987 00000-0 54117-3 0 9991 2 33493 98.2495 339.6219 0015619 331.5972 28.4398 15.01692687755114 NOAA-19 1 33591U 09005A 22342.80354328 .00000189 00000-0 12665-3 0 9992 2 33591 99.1279 20.4391 0014662 60.6526 299.6107 14.12648084712803 SRMSAT 1 37841U 11058D 22342.56034404 .00000441 00000-0 97172-4 0 9996 2 37841 19.9723 282.4784 0012031 97.3608 58.6255 14.10800463575859 HRBE 1 37855U 11061F 22342.30858803 .00018346 00000-0 73380-3 0 9991 2 37855 101.7138 194.1923 0142791 260.1516 98.3555 15.16267153607549 RS-40 1 38735U 12041C 22342.49155868 .00000026 00000-0 11754-3 0 9992 2 38735 82.4738 157.0030 0017518 354.2596 5.8285 12.42589255470138 ZACUBE-1 1 39417U 13066B 22342.62089743 .00002243 00000-0 27423-3 0 9994 2 39417 97.6607 306.5448 0056308 191.9245 168.0640 14.83098341488932 Delfi-N3xt 1 39428U 13066N 22342.69600983 .00003410 00000-0 51801-3 0 9992 2 39428 97.8263 269.7252 0117040 80.3764 281.0643 14.70094832484128 GOMX-1 1 39430U 13066Q 22342.62099226 .00001409 00000-0 25717-3 0 9993 2 39430 97.7961 239.7831 0147135 215.1741 143.9688 14.60698835481715 LO-74 1 39440U 13066AA 22342.59681637 .00002991 00000-0 40498-3 0 9993 2 39440 97.7499 293.0948 0076320 287.0234 72.2625 14.77695546485999 AO-73 1 39444U 13066AE 22342.63771524 .00002749 00000-0 32500-3 0 9993 2 39444 97.6477 309.0005 0055288 178.7339 181.4026 14.84341696487354 SPROUT 1 39770U 14029E 22342.54927049 .00008765 00000-0 83528-3 0 9990 2 39770 97.9542 101.0157 0008068 226.7318 133.3296 14.93590582463624 DTUSAT-2 1 40030U 14033W 22342.60848263 .00003054 00000-0 31583-3 0 9993 2 40030 97.9513 276.2533 0010684 193.5250 166.5683 14.90825343459580 EO-80 1 40032U 14033Y 22342.58360350 .00003520 00000-0 36321-3 0 9991 2 40032 97.9519 276.2440 0010555 194.1576 165.9347 14.90808806460071 HODOYOSHI-1 1 40299U 14070B 22342.82977274 .00006781 00000-0 24388-3 0 9995 2 40299 97.2239 45.8204 0010279 233.5481 238.1438 15.28885874449682 FIREBIRD FU3 1 40377U 15003B 22342.47395506 .00031522 00000-0 76443-3 0 9992 2 40377 99.0792 246.8797 0085650 151.4066 209.1910 15.37204814435075 FIREBIRD FU4 1 40378U 15003C 22342.48801155 .00031776 00000-0 76825-3 0 9991 2 40378 99.0801 247.1541 0085488 150.8633 209.7416 15.37306208435088 GRIFEX 1 40379U 15003D 22342.26582627 .00018958 00000-0 59912-3 0 9993 2 40379 99.0871 230.5312 0104792 201.9307 157.7426 15.27606876434113 XW-2A 1 40903U 15049E 22342.88796069 .00046519 00000-0 49674-3 0 9999 2 40903 97.1548 42.4657 0007221 178.2848 299.6064 15.63766109406415 XW-2C 1 40906U 15049H 22342.86265343 .00006715 00000-0 30397-3 0 9992 2 40906 97.4955 345.1430 0014812 106.4701 14.8153 15.21125823399413 XW-2D 1 40907U 15049J 22342.85490159 .00007825 00000-0 34390-3 0 9997 2 40907 97.4940 345.2972 0014111 101.1769 342.3162 15.22092172399474 LILACSAT-2 1 40908U 15049K 22342.84766529 .00003475 00000-0 17911-3 0 9991 2 40908 97.5222 341.8915 0016081 127.5125 352.4636 15.16939266398917 XW-2E 1 40909U 15049L 22342.86044227 .00013171 00000-0 49419-3 0 9990 2 40909 97.4628 350.3147 0013256 79.4126 4.4257 15.27268843399996 XW-2F 1 40910U 15049M 22342.85664416 .00013046 00000-0 49761-3 0 9990 2 40910 97.4715 349.4914 0014092 80.6727 40.6379 15.26714768399758 XW-2B 1 40911U 15049N 22342.83538373 .00007627 00000-0 33667-3 0 9997 2 40911 97.4935 345.8157 0014106 103.4039 18.3163 15.21951932399358 DCBB 1 40912U 15049P 22342.87261870 .00015788 00000-0 53782-3 0 9994 2 40912 97.4314 353.8663 0013497 49.6360 70.8460 15.30389086400385 TW-1A 1 40928U 15051D 22342.85980598 .00352124 49423-4 10157-2 0 9999 2 40928 97.0082 6.4054 0006304 96.5783 20.7048 15.93010586405605 IO-86 1 40931U 15052B 22341.46611562 .00001032 00000-0 54075-4 0 9994 2 40931 5.9965 14.8235 0012932 96.2268 263.9400 14.76935061388966 AO-85 1 40967U 15058D 22341.22264497 .00001192 00000-0 14623-3 0 5520 2 40967 64.7745 265.9621 0172326 142.4124 218.9176 14.78204152 86193 ATHENOXAT-1 1 41168U 15077C 22342.39970538 .00027706 00000-0 98017-3 0 9997 2 41168 14.9913 236.3226 0007594 182.4853 323.7723 15.26939869386876 ChubuSat-2 1 41338U 16012B 22342.74837959 .00002851 00000-0 20507-3 0 9997 2 41338 31.0045 353.5681 0012825 83.7927 276.4169 15.02131155373708 ChubuSat-3 1 41339U 16012C 22342.73514065 .00002250 00000-0 16041-3 0 9998 2 41339 31.0114 350.5741 0012626 91.6435 268.5658 15.02145292373703 Horyu-4 1 41340U 16012D 22342.66900676 .00005300 00000-0 36187-3 0 9991 2 41340 31.0056 325.5858 0012618 138.2109 221.9493 15.04601902373974 e-st@r-II 1 41459U 16025D 22342.73037053 .00012804 00000-0 49752-3 0 9993 2 41459 98.1913 161.5006 0133487 36.5617 324.4654 15.18233751363892 AAUSAT4 1 41460U 16025E 22342.47738454 .00026486 00000-0 83247-3 0 9997 2 41460 98.1784 169.3350 0107279 6.6983 23.6275 15.27433481364421 LO-87 1 41557U 16033B 22342.87565601 .00021507 00000-0 53657-3 0 9990 2 41557 97.3903 81.4673 0010894 111.5106 28.8022 15.40152468364170 NuSat2 1 41558U 16033C 22342.88555175 .00020291 00000-0 47678-3 0 9992 2 41558 97.4147 88.1992 0010444 100.8536 42.0316 15.41985436364476 Lapan A3 1 41603U 16040E 22342.86694468 .00001683 00000-0 78321-4 0 9992 2 41603 97.1879 12.1628 0011226 267.5476 265.9261 15.21202728358542 Pratham 1 41783U 16059A 22342.50627700 .00000617 00000-0 12701-3 0 9992 2 41783 97.8931 16.9157 0032909 346.2581 13.7723 14.63528033331086 TY-1 1 41844U 16066D 22342.88321941 .00018971 00000-0 54918-3 0 9995 2 41844 97.3834 354.6098 0013126 33.6567 86.6350 15.35549978338328 CAS-2T 1 41847U 16066G 22342.13743736 .00000899 00000-0 14291-3 0 9996 2 41847 98.5312 46.4659 0363411 50.2616 313.0003 14.38940755319320 EO-88 1 42017U 17008BX 22342.45296116 .00035373 00000-0 83168-3 0 9997 2 42017 97.2482 46.5753 0003652 1.1359 358.9896 15.41902822323812 CAS-4B 1 42759U 17034B 22342.79113485 .00004710 00000-0 27108-3 0 9996 2 42759 43.0165 90.7976 0011433 309.5375 185.7512 15.13422327302756 CAS-4A 1 42761U 17034D 22342.81841852 .00005196 00000-0 29693-3 0 9998 2 42761 43.0165 89.3081 0011684 312.5758 191.2151 15.13516883302760 NIUSat 1 42766U 17036B 22342.08880944 .00014569 00000-0 50629-3 0 9996 2 42766 97.1826 13.8715 0014403 72.0025 288.2785 15.29737690303312 Aalto 1 1 42775U 17036L 22342.30927789 .00011372 00000-0 41369-3 0 9990 2 42775 97.1776 13.6394 0013527 71.9272 288.3440 15.28309357303307 URSA MAIOR 1 42776U 17036M 22342.34357605 .00012966 00000-0 45900-3 0 9994 2 42776 97.1789 14.6055 0013136 70.1880 290.0776 15.29176801303353 Max Valier Sat 1 42778U 17036P 22342.34190509 .00014929 00000-0 50937-3 0 9991 2 42778 97.1840 17.6036 0011739 70.5397 289.7111 15.30363364303463 Pegasus 1 42784U 17036V 22342.38936011 .00020673 00000-0 64308-3 0 9998 2 42784 97.1776 18.9386 0010923 69.5789 290.6626 15.33279177303628 NUDATSat 1 42787U 17036Y 22342.88786263 .00035325 00000-0 81944-3 0 9993 2 42787 97.1793 25.2177 0008590 52.0655 308.1422 15.42276210303898 SUCHAI 1 1 42788U 17036Z 22342.39090378 .00026407 00000-0 74559-3 0 9990 2 42788 97.1774 21.1562 0009857 63.9820 296.2439 15.36300250303837 SKCUBE 1 42789U 17036AA 22342.10992466 .00023397 00000-0 69121-3 0 9993 2 42789 97.1776 20.0912 0010116 65.6753 294.5546 15.34899229303669 VZLUSAT 1 1 42790U 17036AB 22342.01294785 .00044515 00000-0 10456-2 0 9995 2 42790 97.1787 24.2674 0008261 56.3185 303.8849 15.41854009303900 VENTA 1 1 42791U 17036AC 22342.36929317 .00019477 00000-0 59983-3 0 9998 2 42791 97.1783 20.0242 0010102 67.1200 293.1109 15.33618995303674 Robusta 1B 1 42792U 17036AD 22342.11780587 .00028645 00000-0 82028-3 0 9999 2 42792 97.1772 20.8338 0009576 65.4904 294.7337 15.35844413303726 D-SAT 1 42794U 17036AF 22342.26277457 .00002735 00000-0 23052-3 0 9998 2 42794 97.4556 338.6408 0119884 222.3891 136.8022 14.93551490297410 TechnoSat 1 42829U 17042E 22342.51363173 .00002063 00000-0 20645-3 0 9992 2 42829 97.3993 186.3589 0014697 139.8081 220.4228 14.92355169294048 AO-91 1 43017U 17073E 22342.43024101 .00008612 00000-0 63393-3 0 9995 2 43017 97.6535 229.4319 0243490 337.8326 21.2497 14.82832119272887 PICSAT 1 43132U 18004X 22342.62088592 .00027150 00000-0 75040-3 0 9993 2 43132 97.3577 58.4887 0008253 95.6706 264.5479 15.36976040273105 AO-92 1 43137U 18004AC 22342.46133272 .00018921 00000-0 58533-3 0 9990 2 43137 97.3534 56.3183 0008445 102.1368 258.0821 15.33499858272977 TianYi 2 1 43155U 18008A 22342.90665462 .00009399 00000-0 46335-3 0 9990 2 43155 97.3314 35.7590 0013636 256.0846 276.2621 15.18066087269719 Zhou Enlai 1 43156U 18008B 22342.86545862 .00010195 00000-0 50367-3 0 9993 2 43156 97.3360 35.6596 0011005 257.5386 221.2066 15.17995502269635 TianYi 6 1 43158U 18008D 22342.93171407 .00008156 00000-0 42100-3 0 9993 2 43158 97.3330 33.3123 0010575 260.2304 273.1023 15.16524377269521 S-Net D 1 43186U 18014G 22342.47657610 .00003321 00000-0 28110-3 0 9999 2 43186 97.6466 244.8175 0012252 77.3254 282.9338 14.98640979264973 S-Net B 1 43187U 18014H 22342.47698110 .00003339 00000-0 28257-3 0 9991 2 43187 97.6462 244.7607 0012316 77.1520 283.1079 14.98638256264974 S-Net A 1 43188U 18014J 22342.47728185 .00003361 00000-0 28440-3 0 9997 2 43188 97.6468 244.8349 0012314 77.2748 282.9851 14.98638792264976 S-Net C 1 43189U 18014K 22342.47837036 .00003425 00000-0 28978-3 0 9991 2 43189 97.6463 244.7483 0012422 77.2000 283.0610 14.98634793263523 FMN 1 1 43192U 18015A 22342.92226362 .00070933 00000-0 11436-2 0 9998 2 43192 97.5506 134.4495 0008438 131.0699 350.9488 15.52647253270360 Shaonian Xing 1 43199U 18015H 22342.89515598 .00029784 00000-0 70625-3 0 9997 2 43199 97.5323 127.3666 0012268 138.0349 349.4405 15.41612594270247 SurfSat 1 43614U 18070B 22342.35476679 .00166577 00000-0 97173-3 0 9996 2 43614 92.9985 173.2236 0008022 43.0767 317.1135 15.77919314238231 CP-7 DAVE 1 43615U 18070C 22342.49992593 .00115282 00000-0 84419-3 0 9996 2 43615 92.9980 172.8530 0009090 48.2805 311.9244 15.72795163238181 CubeBel-1 1 43666U 18083E 22342.89103278 .00014213 00000-0 53945-3 0 9996 2 43666 97.4056 9.8407 0014044 79.4601 358.8815 15.26857217228066 Changshagaoxin 1 43669U 18083H 22342.87006135 .00011461 00000-0 46134-3 0 9995 2 43669 97.4016 5.2514 0010852 78.2397 24.3866 15.24984570227854 Ten-Koh 1 43677U 18084G 22342.65939626 .00002051 00000-0 20948-3 0 9991 2 43677 97.9874 114.6097 0016687 60.0593 300.2279 14.91649010223647 PO-101 1 43678U 18084H 22342.91566280 .00000661 00000-0 70055-4 0 9993 2 43678 97.9942 118.5339 0011147 71.9383 288.3058 14.92528567223870 IRVINE 01 1 43693U 18088D 22342.54151196 .00141453 00000-0 16966-2 0 9993 2 43693 85.0206 191.3387 0005319 126.2660 233.9095 15.60433621227116 QO-100 1 43700U 18090A 22342.88774228 .00000160 00000-0 00000-0 0 9998 2 43700 0.0160 15.3506 0001673 269.4204 138.2272 1.00273305 14772 Reaktor Hello World 1 43743U 18096AA 22342.64466841 .00022466 00000-0 57443-3 0 9993 2 43743 97.3412 62.2100 0014106 149.0160 211.1921 15.39349960224704 MinXSS-2 1 43758U 18099A 22342.60602731 .00005486 00000-0 46194-3 0 9992 2 43758 97.6069 46.2520 0016154 46.5439 313.7124 14.98523620219174 AO-95 1 43770U 18099N 22342.59707289 .00004711 00000-0 40908-3 0 9995 2 43770 97.6016 44.3262 0015327 56.6239 303.6448 14.97406076219062 RANGE-B 1 43772U 18099Q 22342.43761453 .00005081 00000-0 43065-3 0 9991 2 43772 97.6129 46.3007 0013653 40.4979 319.7257 14.98328679219070 RANGE-A 1 43773U 18099R 22342.11140410 .00002949 00000-0 26253-3 0 9991 2 43773 97.5927 42.4286 0013930 46.1617 314.0754 14.96730562218965 MOVE-II 1 43780U 18099Y 22342.44130271 .00007203 00000-0 59256-3 0 9996 2 43780 97.6042 45.8032 0011824 48.8512 311.3729 14.99360205219117 SNUSat 2 1 43782U 18099AA 22342.42769854 .00002867 00000-0 25050-3 0 9997 2 43782 97.6015 44.6666 0012939 41.3152 318.9047 14.97496473219060 SnugLite 1 43784U 18099AC 22342.43591229 .00003947 00000-0 34008-3 0 9992 2 43784 97.5970 44.2978 0014930 47.7356 312.5130 14.97806492219094 ITASat 1 1 43786U 18099AE 22342.17895924 .00003234 00000-0 28235-3 0 9998 2 43786 97.6035 44.9224 0015282 49.5152 310.7399 14.97412409219048 EAGLET 1 1 43790U 18099AJ 22342.59627882 .00003277 00000-0 28601-3 0 9999 2 43790 97.6034 45.8708 0014196 53.2789 306.9735 14.97435657218848 ESEO 1 43792U 18099AL 22342.14207120 .00001619 00000-0 14685-3 0 9996 2 43792 97.5988 44.3625 0014381 51.5945 308.6566 14.96611889218809 CSIM 1 43793U 18099AM 22342.60433163 .00007682 00000-0 62026-3 0 9994 2 43793 97.6096 47.0437 0015586 46.1837 314.0673 15.00021939218975 Astrocast 0.1 1 43798U 18099AS 22342.45022641 .00004841 00000-0 40427-3 0 9992 2 43798 97.6040 46.5243 0011379 29.3421 330.8439 14.98951698219164 JO-97 1 43803U 18099AX 22342.59600893 .00005063 00000-0 43098-3 0 9999 2 43803 97.6005 45.1534 0015574 49.0757 311.1811 14.98138832219132 Suomi 100 1 43804U 18099AY 22342.36081710 .00003552 00000-0 30521-3 0 9994 2 43804 97.5998 44.8067 0015301 46.2914 313.9573 14.97975111219102 Al Farabi 2 1 43805U 18099AZ 22342.93491742 .00005236 00000-0 43729-3 0 9993 2 43805 97.6028 46.0787 0015568 47.4412 312.8122 14.98866130219224 CHOMPTT 1 43855U 18104G 22342.59757418 .00016342 00000-0 54469-3 0 9995 2 43855 85.0331 294.7807 0012040 322.5046 37.5360 15.30902255221330 ISAT 1 43879U 18111D 22342.01120154 .00005928 00000-0 49028-3 0 9990 2 43879 97.6531 244.4625 0014621 97.7805 262.5079 14.99206854215660 UWE-4 1 43880U 18111E 22342.19979526 .00004815 00000-0 39855-3 0 9997 2 43880 97.6564 245.4585 0012107 98.8385 261.4210 14.99292087215721 Sparrow 1 43881U 18111F 22341.99544399 .00005521 00000-0 45356-3 0 9999 2 43881 97.6576 245.5636 0011429 96.6767 263.5757 14.99527710215700 Lume 1 1 43908U 18111AJ 22342.24242558 .00019106 00000-0 57151-3 0 9990 2 43908 97.1668 224.7345 0016545 164.3968 195.7789 15.34459350220007 FO-99 1 43937U 19003F 22342.07723847 .00022834 00000-0 65470-3 0 9994 2 43937 97.1122 9.0241 0016179 249.4272 110.5237 15.35762948216570 MYSat 1 1 44045U 18092F 22342.04761884 .00918313 41729-3 16993-2 0 9999 2 44045 51.6154 270.1009 0008348 124.3582 235.8219 16.00524401215098 AstroCast 0.2 1 44083U 19018F 22342.40280587 .00018940 00000-0 62344-3 0 9999 2 44083 97.2998 38.2219 0007632 216.5773 143.4949 15.31517293205063 AISTechSat 3 1 44103U 19018AB 22342.43496988 .00016291 00000-0 54392-3 0 9990 2 44103 97.2863 38.3799 0009756 231.9960 128.0401 15.31072244205232 AISat 1 1 44104U 19018AC 22342.15360662 .00014324 00000-0 36409-3 0 9993 2 44104 97.3879 66.1955 0047419 228.7370 130.9787 15.38553617206270 Prox-1 1 44339U 19036A 22342.87589338 .00004293 00000-0 90317-3 0 9997 2 44339 23.9988 171.4320 0010408 329.6257 30.3632 14.56290335183792 Oculus-ASR 1 44348U 19036K 22342.57545394 .00144487 -99993-6 78875-3 0 9999 2 44348 28.4950 50.6941 0155359 138.8763 222.3666 15.63089504191540 NO-104 1 44354U 19036R 22342.49592735 .00154774 -68864-7 73895-3 0 9999 2 44354 28.5209 31.1208 0141600 166.4619 193.9840 15.67936672191724 Move-IIb 1 44398U 19038N 22342.86208443 .00017870 00000-0 74305-3 0 9992 2 44398 97.6455 314.5501 0016534 242.6366 117.3193 15.23722878189540 SONATE 1 44400U 19038Q 22342.83960976 .00006899 00000-0 35498-3 0 9998 2 44400 97.6632 312.5484 0020591 250.9099 108.9904 15.16582255189341 BeeSat 9 1 44412U 19038AC 22342.64166536 .00013629 00000-0 62852-3 0 9993 2 44412 97.6573 313.7714 0016533 251.0608 108.8835 15.20255983189124 JAISAT-1 1 44419U 19038F 22342.17895417 .00013825 00000-0 62973-3 0 9997 2 44419 97.6568 314.2711 0015559 249.1651 110.7917 15.20691037189421 Taurus 1 1 44530U 19059C 22342.69463535 .00002392 00000-0 65734-3 0 9998 2 44530 98.5510 83.0058 0012041 312.6231 47.3962 14.47883324171055 Duchifat 3 1 44854U 19089C 22342.80084440 .00004303 00000-0 32355-3 0 9994 2 44854 36.9646 145.7788 0006801 210.2257 249.3434 15.02502205164153 OPS-SAT 1 44878U 19092F 22342.27149249 .00016859 00000-0 70310-3 0 9996 2 44878 97.4757 165.1499 0012772 92.6236 267.6463 15.23681231164629 TO-108 1 44881U 19093C 22342.92911942 .00000638 00000-0 87067-4 0 9996 2 44881 97.8812 59.5331 0014622 343.8583 16.2171 14.81959369160614 FloripaSat 1 1 44885U 19093G 22342.63909212 .00002230 00000-0 27468-3 0 9993 2 44885 97.8856 61.0570 0013717 349.5745 10.5200 14.83876934160670 RS-44 1 44909U 19096E 22342.61478486 .00000004 00000-0 -19865-4 0 9996 2 44909 82.5201 114.5817 0216418 272.5016 85.1327 12.79716918137781 BY70-2 1 45857U 20042B 22342.74976929 .00008636 00000-0 10829-2 0 9998 2 45857 97.9445 58.0987 0008943 265.4803 94.5431 14.82407175131255 UPMSat 2 1 46276U 20061E 22342.63045026 .00006227 00000-0 29469-3 0 9993 2 46276 97.3741 49.4511 0000371 44.9908 315.1357 15.19706351125312 AmicalSat 1 46287U 20061R 22342.61790850 .00008934 00000-0 48561-3 0 9996 2 46287 97.4282 48.2189 0003442 57.3269 302.8295 15.14711886124815 SALSAT 1 46495U 20068K 22342.63641618 .00003652 00000-0 25800-3 0 9996 2 46495 97.7501 284.2361 0017885 51.2270 309.0551 15.05428204120389 BY70-3 1 46839U 20079N 22342.91339049 .00049834 00000-0 79965-3 0 9996 2 46839 97.1808 53.6071 0004689 69.3135 48.7186 15.52896257117206 CAPE 3 1 47309U 21002A 22342.72008077 .00016243 00000-0 56952-3 0 9998 2 47309 60.6829 67.3298 0041983 81.4599 279.1245 15.28822062105059 AO-109 1 47311U 21002C 22342.47423705 .00014021 00000-0 49552-3 0 9992 2 47311 60.6852 65.6787 0038417 79.9533 280.5888 15.28806533105032 MiTEE 1 1 47314U 21002F 22342.74968863 .00033728 00000-0 87124-3 0 9996 2 47314 60.6807 51.3151 0035304 72.4756 288.0191 15.38314892105324 ExoCube 2 1 47319U 21002L 22342.78775841 .00013018 00000-0 46745-3 0 9991 2 47319 60.6838 65.9892 0039618 81.4250 279.1325 15.28302368105028 UVSQ-SAT 1 47438U 21006AB 22342.58490163 .00010843 00000-0 53438-3 0 9996 2 47438 97.4154 38.0448 0012081 36.6663 323.5395 15.18056326103671 YUSAT 1 1 47439U 21006AC 22342.41775278 .00012479 00000-0 59888-3 0 9994 2 47439 97.4166 38.1558 0011764 37.2361 322.9687 15.18948946103661 SOMP 2b 1 47445U 21006AJ 22342.43044216 .00010030 00000-0 50177-3 0 9997 2 47445 97.4130 37.3952 0011992 41.6123 318.6021 15.17552665103635 IDEASSat 1 47458U 21006AX 22342.56323924 .00009516 00000-0 47869-3 0 9992 2 47458 97.4216 38.1807 0011130 40.5199 319.6861 15.17382938103645 CubeSX-Sirius-HSE 1 47951U 21022V 22342.85777454 .00006494 00000-0 41160-3 0 9991 2 47951 97.5150 238.6977 0018885 270.3651 153.9181 15.09129269 94286 CubeSX-HSE 1 47952U 21022W 22342.91014939 .00006066 00000-0 38423-3 0 9994 2 47952 97.5139 238.7805 0018614 270.2063 183.0742 15.09184928 94292 KSU-Cubesat 1 47954U 21022Y 22342.16027109 .00007473 00000-0 46750-3 0 9991 2 47954 97.5150 238.2338 0018062 272.0268 87.8893 15.09564764 93913 GRBAlpha 1 47959U 21022AD 22342.89881762 .00005827 00000-0 36884-3 0 9997 2 47959 97.5149 238.8254 0018457 271.1282 150.7289 15.09224480 93112 Orbicraft-Zorkiy 1 47960U 21022AE 22342.85100758 .00006903 00000-0 43274-3 0 9991 2 47960 97.5168 239.0052 0018346 270.2408 154.1990 15.09517441 93806 STECCO 1 47962U 21022AG 22342.86418819 .00010090 00000-0 58355-3 0 9992 2 47962 97.5133 240.2348 0013243 262.1492 162.1375 15.12387670 93209 DO-111 1 47963U 21022AH 22342.82068194 .00032562 00000-0 14752-2 0 9996 2 47963 97.5176 242.7239 0011644 251.8860 108.1107 15.20734295 93379 MO-110 1 47964U 21022AJ 22342.18753997 .00013869 00000-0 78930-3 0 9996 2 47964 97.5159 239.9538 0015405 260.1200 99.8292 15.12860631 93120 FEES 1 48082U 21022AL 22342.47177848 .00020108 00000-0 10919-2 0 9991 2 48082 97.5156 240.4169 0011440 256.0033 103.9927 15.14502543 92880 CSS 1 48274U 21035A 22342.71581240 .00022547 00000-0 27971-3 0 9996 2 48274 41.4767 236.2571 0005034 46.6639 359.5222 15.59480675 92052 TUBIN 1 48900U 21059X 22342.86002183 .00005126 00000-0 27448-3 0 9991 2 48900 97.5751 111.1770 0009105 214.7040 246.9028 15.15440318 80313 IT-SPINS 1 49017U 21013G 22342.26486289 .00018025 00000-0 61258-3 0 9997 2 49017 51.5969 285.7331 0007355 357.0903 3.0033 15.30498424 80360 LEDSAT 1 49069U 21073D 22341.94621135 .00007331 00000-0 44827-3 0 9996 2 49069 97.5084 51.3903 0027386 61.4265 298.9715 15.10221436 72009 CUTE 1 49263U 21088D 22342.60072913 .00007645 00000-0 54532-3 0 9998 2 49263 97.5708 47.0231 0019408 189.2535 170.8336 15.04677348 65592 TeikyoSat 4 1 49396U 21102B 22342.56660341 .00002150 00000-0 17152-3 0 9998 2 49396 97.5409 35.2330 0017665 30.7918 329.4339 15.01223682 59160 Z-Sat 1 49399U 21102E 22342.80925608 .00002131 00000-0 16098-3 0 9995 2 49399 97.5158 36.6580 0022710 3.8211 356.3184 15.03230969 59277 KOSEN 1 1 49402U 21102H 22342.14176114 .00003012 00000-0 21857-3 0 9995 2 49402 97.5085 36.2655 0021562 355.4215 4.6810 15.04472206 59210 HO-113 1 50466U 21131B 22342.82533907 .00000321 00000-0 11940-3 0 9993 2 50466 98.5690 59.8886 0004165 3.1969 356.9244 14.38589040 49983 Tevel-3 1 50988U 22002E 22342.94555288 .00009652 00000-0 48831-3 0 9994 2 50988 97.4633 47.1095 0009529 170.5933 2.7842 15.17197399 49843 Tevel-8 1 50989U 22002F 22342.95681431 .00009860 00000-0 49944-3 0 9993 2 50989 97.4644 47.1562 0009781 168.7300 4.6570 15.17143524 49842 Tevel-5 1 50998U 22002Q 22342.95215691 .00010360 00000-0 51542-3 0 9998 2 50998 97.4620 47.3204 0010898 166.4509 246.5181 15.17752320 49865 Tevel-6 1 50999U 22002R 22342.89717921 .00010346 00000-0 51464-3 0 9992 2 50999 97.4619 47.2629 0010777 166.3609 311.4618 15.17757410 49851 Tevel-1 1 51013U 22002AF 22342.95081846 .00009820 00000-0 49715-3 0 9998 2 51013 97.4626 47.0796 0009295 169.1531 4.0358 15.17169391 49848 Grizu-263a 1 51025U 22002AT 22342.17614529 .00027746 00000-0 11997-2 0 9992 2 51025 97.4792 48.3100 0011559 172.1071 188.0349 15.22365353 49819 NO-116 1 51031U 22002AZ 22342.45554652 .00019474 00000-0 90852-3 0 9997 2 51031 97.4748 47.8951 0012256 172.7074 187.4341 15.19825004 49825 IRIS-A 1 51044U 22002BN 22342.80061300 .00007088 00000-0 38128-3 0 9999 2 51044 97.4630 46.5058 0009101 172.3129 187.8245 15.15129045 49796 Tevel-7 1 51062U 22002CG 22342.95886919 .00009873 00000-0 50013-3 0 9997 2 51062 97.4636 47.1396 0009733 167.9423 5.4551 15.17142620 49849 Tevel-4 1 51063U 22002CH 22342.96059597 .00009840 00000-0 49877-3 0 9993 2 51063 97.4634 47.1331 0009550 167.8172 5.2983 15.17124642 49845 Tevel-2 1 51069U 22002CP 22342.87177737 .00009658 00000-0 48870-3 0 9995 2 51069 97.4628 47.0155 0009301 171.0631 309.9894 15.17191428 49838 DELFI-PQ 1 51074U 22002CU 22342.45352846 .00021034 00000-0 92881-3 0 9994 2 51074 97.4880 49.2130 0012030 201.6274 158.4455 15.21701072 49878 SO-115 1 51080U 22002DA 22342.44162782 .00014208 00000-0 66688-3 0 9999 2 51080 97.4892 48.8271 0012074 202.9560 157.1136 15.19686718 49844 SO-114 1 51081U 22002DB 22342.44147077 .00014261 00000-0 66888-3 0 9991 2 51081 97.4881 48.7922 0012418 202.7418 157.3268 15.19708984 49845 OreSat0 1 52017U 22026K 22342.72956352 .00010712 00000-0 53048-3 0 9993 2 52017 97.5081 340.6704 0027221 33.1845 327.1089 15.17627093 40598 Planetum 1 1 52738U 22057G 22342.60291744 .00010289 00000-0 56717-3 0 9996 2 52738 97.5270 94.7723 0006700 293.4000 66.6527 15.14163228 29769 Foresail-1 1 52766U 22057AL 22342.86712297 .00005574 00000-0 30178-3 0 9990 2 52766 97.5358 95.6373 0011850 270.3437 185.6413 15.14977119 29823 SNUGLITE 2 1 52899U 22065F 22342.83241290 .00000904 00000-0 20382-3 0 9991 2 52899 98.0419 128.3950 0009364 91.9345 268.2927 14.58591140 23107 CTIM 1 52950U 22074G 22342.66895663 .00018372 00000-0 67270-3 0 9994 2 52950 45.0053 330.6752 0006281 80.9848 279.1824 15.27809710 24335 IO-117 1 53106U 22080B 22340.05508021 -.00000003 00000-0 00000-0 0 9993 2 53106 70.1737 26.8203 0008955 228.4776 131.5115 6.42557513 9347 AstroBioCubeSat 1 53107U 22080C 22335.48380743 -.00000003 00000-0 00000+0 0 9993 2 53107 70.1708 28.4998 0013747 221.0196 138.9480 6.42110587 8942 CELESTA 1 53111U 22080G 22310.17474584 -.00000003 00000-0 00000+0 0 9994 2 53111 70.4223 37.2580 0024959 243.8956 115.9136 6.43203861 7301 RS4S 1 53306U 98067TR 22342.28705032 .00161017 00000-0 12564-2 0 9993 2 53306 51.6333 186.1393 0008185 185.0572 175.0345 15.70608477 21778 RS3S 1 53308U 98067TT 22342.61973188 .00138613 00000-0 11143-2 0 9999 2 53308 51.6332 184.6077 0007919 185.6345 174.4564 15.69973899 21888 RS1S 1 53309U 98067TU 22342.85097578 .00139401 00000-0 10829-2 0 9992 2 53309 51.6324 183.1434 0008500 190.5369 169.5452 15.70786950 21871 RS5S 1 53310U 98067TV 22342.80951530 .00129415 00000-0 10390-2 0 9993 2 53310 51.6335 183.6241 0008147 188.1227 171.9639 15.70036773 21896 RS6S 1 53311U 98067TW 22342.57206601 .00159959 00000-0 12015-2 0 9992 2 53311 51.6323 184.2799 0007993 186.0009 174.0894 15.71522131 21887 RS9S 1 53312U 98067TX 22342.85483247 .00136519 00000-0 10758-2 0 9996 2 53312 51.6333 183.1770 0008600 190.5845 169.4972 15.70453492 21865 RS12S 1 53313U 98067TY 22342.84977820 .00134211 00000-0 10519-2 0 9993 2 53313 51.6332 183.1444 0008162 192.1323 167.9479 15.70596333 21918 JAGSAT 1 53771U 98067UJ 22342.30964250 .00177657 00000-0 14410-2 0 9990 2 53771 51.6344 187.7904 0009595 199.0871 160.9768 15.69605203 14501 SelfieSat 1 53951U 22057BA 22342.28694383 .00010443 00000-0 57008-3 0 9990 2 53951 97.5319 94.7072 0009059 285.6301 74.3931 15.14489010 29726 /EX
